Location: Cisewo
(53.3833°N, 14.9000°E)
Time: 10:40:03
(UTC+00:00)

USA 245 - Pass Details

Date: 18 April 2021
Orbit: 266 x 984 km, 97.9° (Epoch: 10 May)

Event Time Altitude Azimuth Distance (km) Brightness Sun altitude
Exits shadow 20:24:55 22° 196° (SSW) 1,231 4.8 -17.6°
Maximum altitude 20:27:05 43° 258° (WSW) 704 4.0 -17.8°
Drops below altitude 10° 20:30:15 10° 332° (NNW) 1,538 6.8 -18.1°
Sets 20:32:07 0° 340° (NNW) 2,308 7.9 -18.2°
